Time,TemperatureF,DewpointF,PressureIn,WindDirection,WindDirectionDegrees,WindSpeedMPH,WindSpeedGustMPH,Humidity,HourlyPrecipIn,Conditions,Clouds,dailyrainin,SoftwareType,DateUTC
2013-01-01 00:02:00,-8.0,-11.0,-100.00,WNW,292,6.0,9.0,84,0.00,,,-99.99,,2013-01-01 07:02:00,
2013-01-01 00:12:00,-4.0,-7.0,-100.00,NW,312,7.0,9.0,87,0.00,,,-99.99,,2013-01-01 07:12:00,
2013-01-01 00:22:00,-5.0,-9.0,-100.00,NW,313,5.0,7.0,82,0.00,,,-99.99,,2013-01-01 07:22:00,
2013-01-01 00:32:00,-5.0,-9.0,-100.00,NW,308,3.0,4.0,84,0.00,,,-99.99,,2013-01-01 07:32:00,
2013-01-01 00:42:00,-7.0,-11.0,-100.00,West,270,2.0,4.0,83,0.00,,,-99.99,,2013-01-01 07:42:00,
2013-01-01 00:52:00,-7.0,-10.0,-100.00,WSW,250,1.0,3.0,84,0.00,,,-99.99,,2013-01-01 07:52:00,
2013-01-01 01:02:00,-7.0,-11.0,-100.00,SW,234,1.0,2.0,84,0.00,,,-99.99,,2013-01-01 08:02:00,
2013-01-01 01:11:00,-7.0,-10.0,-100.00,SW,236,2.0,2.0,84,0.00,,,-99.99,,2013-01-01 08:11:00,
2013-01-01 01:22:00,-7.0,-12.0,-100.00,SW,219,1.0,4.0,79,0.00,,,-99.99,,2013-01-01 08:22:00,
2013-01-01 01:32:00,-10.0,-14.0,-100.00,South,185,4.0,5.0,80,0.00,,,-99.99,,2013-01-01 08:32:00,
2013-01-01 01:42:00,-9.0,-13.0,-100.00,SSW,192,5.0,6.0,83,0.00,,,-99.99,,2013-01-01 08:42:00,
2013-01-01 01:53:00,-9.0,-12.0,-100.00,SSW,203,6.0,7.0,83,0.00,,,-99.99,,2013-01-01 08:53:00,
2013-01-01 02:02:00,-7.0,-10.0,-100.00,SW,216,6.0,7.0,86,0.00,,,-99.99,,2013-01-01 09:02:00,
2013-01-01 02:12:00,-6.0,-10.0,-100.00,SW,222,5.0,6.0,84,0.00,,,-99.99,,2013-01-01 09:12:00,
2013-01-01 02:22:00,-5.0,-9.0,-100.00,SSW,208,4.0,4.0,83,0.00,,,-99.99,,2013-01-01 09:22:00,
2013-01-01 02:32:00,-4.0,-7.0,-100.00,SSW,203,5.0,6.0,85,0.00,,,-99.99,,2013-01-01 09:32:00,
2013-01-01 02:42:00,-3.0,-6.0,-100.00,SSW,202,4.0,6.0,85,0.00,,,-99.99,,2013-01-01 09:42:00,
2013-01-01 02:52:00,-1.0,-4.0,-100.00,SSE,160,4.0,6.0,87,0.00,,,-99.99,,2013-01-01 09:52:00,
2013-01-01 03:02:00,-2.0,-6.0,-100.00,SE,136,4.0,8.0,85,0.00,,,-99.99,,2013-01-01 10:02:00,
2013-01-01 03:12:00,-2.0,-5.0,-100.00,East,99,4.0,10.0,87,0.00,,,-99.99,,2013-01-01 10:12:00,
2013-01-01 03:22:00,-1.0,-4.0,-100.00,ENE,72,2.0,6.0,87,0.00,,,-99.99,,2013-01-01 10:22:00,
2013-01-01 03:33:00,0.0,-3.0,-100.00,East,100,1.0,4.0,87,0.00,,,-99.99,,2013-01-01 10:33:00,
2013-01-01 03:42:00,-2.0,-5.0,-100.00,East,79,1.0,4.0,85,0.00,,,-99.99,,2013-01-01 10:42:00,
2013-01-01 03:52:00,-4.0,-8.0,-100.00,NNE,18,4.0,7.0,83,0.00,,,-99.99,,2013-01-01 10:52:00,
2013-01-01 04:02:00,-4.0,-7.0,-100.00,NNE,13,6.0,9.0,86,0.00,,,-99.99,,2013-01-01 11:02:00,
2013-01-01 04:12:00,-2.0,-5.0,-100.00,North,1,6.0,7.0,86,0.00,,,-99.99,,2013-01-01 11:12:00,
2013-01-01 04:22:00,-1.0,-5.0,-100.00,North,6,4.0,5.0,86,0.00,,,-99.99,,2013-01-01 11:22:00,
2013-01-01 04:32:00,-1.0,-4.0,-100.00,NNE,17,1.0,3.0,87,0.00,,,-99.99,,2013-01-01 11:32:00,
2013-01-01 04:42:00,-1.0,-5.0,-100.00,ENE,58,1.0,2.0,85,0.00,,,-99.99,,2013-01-01 11:42:00,
2013-01-01 04:52:00,-1.0,-4.0,-100.00,East,93,1.0,2.0,86,0.00,,,-99.99,,2013-01-01 11:52:00,
2013-01-01 05:02:00,-3.0,-7.0,-100.00,SSE,148,4.0,6.0,85,0.00,,,-99.99,,2013-01-01 12:02:00,
2013-01-01 05:12:00,-4.0,-7.0,-100.00,SSE,164,4.0,6.0,85,0.00,,,-99.99,,2013-01-01 12:12:00,
2013-01-01 05:22:00,-4.0,-7.0,-100.00,SSW,206,4.0,5.0,85,0.00,,,-99.99,,2013-01-01 12:22:00,
2013-01-01 05:32:00,-4.0,-8.0,-100.00,SW,219,4.0,6.0,85,0.00,,,-99.99,,2013-01-01 12:32:00,
2013-01-01 05:42:00,-3.0,-6.0,-100.00,SSW,210,4.0,6.0,87,0.00,,,-99.99,,2013-01-01 12:42:00,
2013-01-01 05:52:00,-3.0,-7.0,-100.00,SW,224,4.0,5.0,84,0.00,,,-99.99,,2013-01-01 12:52:00,
2013-01-01 06:02:00,-4.0,-7.0,-100.00,SW,227,4.0,5.0,86,0.00,,,-99.99,,2013-01-01 13:02:00,
2013-01-01 06:12:00,-4.0,-7.0,-100.00,SW,229,4.0,4.0,85,0.00,,,-99.99,,2013-01-01 13:12:00,
2013-01-01 06:22:00,-5.0,-8.0,-100.00,SSW,213,4.0,5.0,84,0.00,,,-99.99,,2013-01-01 13:22:00,
2013-01-01 06:32:00,-5.0,-8.0,-100.00,SW,226,3.0,4.0,85,0.00,,,-99.99,,2013-01-01 13:32:00,
2013-01-01 06:42:00,-4.0,-7.0,-100.00,SW,229,2.0,4.0,86,0.00,,,-99.99,,2013-01-01 13:42:00,
2013-01-01 06:52:00,-4.0,-8.0,-100.00,WSW,257,1.0,3.0,84,0.00,,,-99.99,,2013-01-01 13:52:00,
2013-01-01 07:02:00,-3.0,-6.0,-100.00,West,260,1.0,3.0,88,0.00,,,-99.99,,2013-01-01 14:02:00,
2013-01-01 07:12:00,-3.0,-7.0,-100.00,SW,217,1.0,3.0,83,0.00,,,-99.99,,2013-01-01 14:12:00,
2013-01-01 07:22:00,-8.0,-12.0,-100.00,SW,229,1.0,4.0,82,0.00,,,-99.99,,2013-01-01 14:22:00,
2013-01-01 07:32:00,-6.0,-9.0,-100.00,SW,219,2.0,4.0,84,0.00,,,-99.99,,2013-01-01 14:32:00,
2013-01-01 07:42:00,-7.0,-11.0,-100.00,SSW,193,2.0,4.0,83,0.00,,,-99.99,,2013-01-01 14:42:00,
2013-01-01 07:53:00,-7.0,-11.0,-100.00,WSW,243,3.0,4.0,85,0.00,,,-99.99,,2013-01-01 14:53:00,
2013-01-01 08:03:00,-6.0,-11.0,-100.00,WSW,239,3.0,4.0,81,0.00,,,-99.99,,2013-01-01 15:03:00,
2013-01-01 08:12:00,-7.0,-10.0,-100.00,SSW,206,2.0,4.0,85,0.00,,,-99.99,,2013-01-01 15:12:00,
2013-01-01 08:22:00,-7.0,-12.0,-100.00,SSW,210,3.0,4.0,81,0.00,,,-99.99,,2013-01-01 15:22:00,
2013-01-01 08:33:00,-9.0,-14.0,-100.00,SSW,195,5.0,7.0,81,0.00,,,-99.99,,2013-01-01 15:33:00,
2013-01-01 08:42:00,-9.0,-13.0,-100.00,SSW,198,5.0,6.0,82,0.00,,,-99.99,,2013-01-01 15:42:00,
2013-01-01 08:53:00,-9.0,-13.0,-100.00,SSW,199,4.0,4.0,83,0.00,,,-99.99,,2013-01-01 15:53:00,
2013-01-01 09:02:00,-8.0,-11.0,-100.00,SSW,196,3.0,4.0,83,0.00,,,-99.99,,2013-01-01 16:02:00,
2013-01-01 09:12:00,-6.0,-10.0,-100.00,SSW,198,2.0,3.0,84,0.00,,,-99.99,,2013-01-01 16:12:00,
2013-01-01 09:22:00,-4.0,-8.0,-100.00,South,189,2.0,4.0,85,0.00,,,-99.99,,2013-01-01 16:22:00,
2013-01-01 09:33:00,-3.0,-7.0,-100.00,SSW,193,2.0,3.0,85,0.00,,,-99.99,,2013-01-01 16:33:00,
2013-01-01 09:42:00,-3.0,-6.0,-100.00,South,186,2.0,3.0,86,0.00,,,-99.99,,2013-01-01 16:42:00,
2013-01-01 09:52:00,-1.0,-4.0,-100.00,South,178,2.0,4.0,87,0.00,,,-99.99,,2013-01-01 16:52:00,
2013-01-01 10:02:00,1.0,-2.0,-100.00,SSW,200,1.0,2.0,88,0.00,,,-99.99,,2013-01-01 17:02:00,
2013-01-01 10:12:00,0.0,-3.0,-100.00,SSE,165,2.0,4.0,86,0.00,,,-99.99,,2013-01-01 17:12:00,
2013-01-01 10:22:00,1.0,-1.0,-100.00,South,169,2.0,4.0,88,0.00,,,-99.99,,2013-01-01 17:22:00,
2013-01-01 10:33:00,2.0,-1.0,-100.00,SSE,152,2.0,4.0,88,0.00,,,-99.99,,2013-01-01 17:33:00,
2013-01-01 10:42:00,2.0,0.0,-100.00,SSE,157,2.0,4.0,89,0.00,,,-99.99,,2013-01-01 17:42:00,
2013-01-01 10:52:00,4.0,1.0,-100.00,SSE,162,3.0,5.0,89,0.00,,,-99.99,,2013-01-01 17:52:00,
2013-01-01 11:03:00,4.0,1.0,-100.00,ESE,119,2.0,5.0,88,0.00,,,-99.99,,2013-01-01 18:03:00,
2013-01-01 11:12:00,4.0,1.0,-100.00,ESE,116,2.0,4.0,88,0.00,,,-99.99,,2013-01-01 18:12:00,
2013-01-01 11:22:00,4.0,1.0,-100.00,East,92,2.0,4.0,88,0.00,,,-99.99,,2013-01-01 18:22:00,
2013-01-01 11:33:00,4.0,1.0,-100.00,NE,40,2.0,4.0,86,0.00,,,-99.99,,2013-01-01 18:33:00,
2013-01-01 11:42:00,4.0,2.0,-100.00,NE,41,3.0,4.0,90,0.00,,,-99.99,,2013-01-01 18:42:00,
2013-01-01 11:52:00,5.0,2.0,-100.00,NNE,24,2.0,4.0,88,0.00,,,-99.99,,2013-01-01 18:52:00,
2013-01-01 12:02:00,8.0,5.0,-100.00,NNE,27,2.0,4.0,87,0.00,,,-99.99,,2013-01-01 19:02:00,
2013-01-01 12:12:00,7.0,4.0,-100.00,NE,55,2.0,4.0,88,0.00,,,-99.99,,2013-01-01 19:12:00,
2013-01-01 12:22:00,7.0,4.0,-100.00,ENE,75,1.0,4.0,86,0.00,,,-99.99,,2013-01-01 19:22:00,
2013-01-01 12:32:00,7.0,3.0,-100.00,East,85,2.0,4.0,86,0.00,,,-99.99,,2013-01-01 19:32:00,
2013-01-01 12:42:00,7.0,4.0,-100.00,East,99,1.0,4.0,87,0.00,,,-99.99,,2013-01-01 19:42:00,
2013-01-01 12:52:00,6.0,3.0,-100.00,ESE,106,3.0,4.0,85,0.00,,,-99.99,,2013-01-01 19:52:00,
2013-01-01 13:02:00,7.0,4.0,-100.00,SE,144,2.0,4.0,87,0.00,,,-99.99,,2013-01-01 20:02:00,
2013-01-01 13:12:00,7.0,4.0,-100.00,SSE,164,3.0,6.0,87,0.00,,,-99.99,,2013-01-01 20:12:00,
2013-01-01 13:22:00,7.0,4.0,-100.00,East,96,2.0,4.0,85,0.00,,,-99.99,,2013-01-01 20:22:00,
2013-01-01 13:32:00,8.0,4.0,-100.00,East,89,2.0,4.0,84,0.00,,,-99.99,,2013-01-01 20:32:00,
2013-01-01 13:42:00,8.0,4.0,-100.00,ENE,71,3.0,6.0,83,0.00,,,-99.99,,2013-01-01 20:42:00,
2013-01-01 13:52:00,7.0,3.0,-100.00,ENE,78,4.0,6.0,85,0.01,,,-99.99,,2013-01-01 20:52:00,
2013-01-01 14:03:00,8.0,4.0,-100.00,ENE,61,4.0,6.0,83,0.00,,,-99.99,,2013-01-01 21:03:00,
2013-01-01 14:12:00,8.0,5.0,-100.00,NE,40,3.0,6.0,87,0.00,,,-99.99,,2013-01-01 21:12:00,
2013-01-01 14:22:00,9.0,4.0,-100.00,NE,38,1.0,3.0,83,0.00,,,-99.99,,2013-01-01 21:22:00,
2013-01-01 14:33:00,9.0,5.0,-100.00,NE,48,2.0,4.0,82,0.00,,,-99.99,,2013-01-01 21:33:00,
2013-01-01 14:42:00,11.0,6.0,-100.00,ENE,65,1.0,4.0,83,0.00,,,-99.99,,2013-01-01 21:42:00,
2013-01-01 14:52:00,10.0,6.0,-100.00,WNW,302,1.0,3.0,84,0.00,,,-99.99,,2013-01-01 21:52:00,
2013-01-01 15:02:00,11.0,6.0,-100.00,SSW,208,1.0,3.0,82,0.00,,,-99.99,,2013-01-01 22:02:00,
2013-01-01 15:12:00,11.0,7.0,-100.00,ESE,121,1.0,3.0,81,0.00,,,-99.99,,2013-01-01 22:12:00,
2013-01-01 15:22:00,8.0,3.0,-100.00,NNW,328,2.0,5.0,82,0.00,,,-99.99,,2013-01-01 22:22:00,
2013-01-01 15:33:00,10.0,6.0,-100.00,WSW,258,1.0,3.0,82,0.00,,,-99.99,,2013-01-01 22:33:00,
2013-01-01 15:52:00,8.0,3.0,-100.00,WNW,296,4.0,5.0,83,0.00,,,-99.99,,2013-01-01 22:52:00,
2013-01-01 16:02:00,8.0,4.0,-100.00,SW,234,2.0,4.0,85,0.00,,,-99.99,,2013-01-01 23:02:00,
2013-01-01 16:12:00,8.0,4.0,-100.00,SSW,203,1.0,3.0,83,0.00,,,-99.99,,2013-01-01 23:12:00,
2013-01-01 16:22:00,8.0,4.0,-100.00,SSW,196,3.0,4.0,84,0.00,,,-99.99,,2013-01-01 23:22:00,
2013-01-01 16:32:00,8.0,4.0,-100.00,SW,223,1.0,4.0,83,0.00,,,-99.99,,2013-01-01 23:32:00,
2013-01-01 16:42:00,6.0,2.0,-100.00,SSW,206,2.0,4.0,82,0.00,,,-99.99,,2013-01-01 23:42:00,
2013-01-01 16:52:00,4.0,0.0,-100.00,South,188,5.0,7.0,82,0.00,,,-99.99,,2013-01-01 23:52:00,
2013-01-01 17:02:00,1.0,-2.0,-100.00,SSW,202,5.0,7.0,84,0.00,,,-99.99,,2013-01-02 00:02:00,
2013-01-01 17:12:00,1.0,-3.0,-100.00,SSW,200,4.0,6.0,85,0.00,,,-99.99,,2013-01-02 00:12:00,
2013-01-01 17:22:00,3.0,-1.0,-100.00,South,176,2.0,4.0,85,0.00,,,-99.99,,2013-01-02 00:22:00,
2013-01-01 17:32:00,3.0,-1.0,-100.00,ESE,106,1.0,2.0,83,0.00,,,-99.99,,2013-01-02 00:32:00,
2013-01-01 17:42:00,0.0,-3.0,-100.00,NNE,30,1.0,2.0,85,0.00,,,-99.99,,2013-01-02 00:42:00,
2013-01-01 17:52:00,-1.0,-5.0,-100.00,NNW,333,6.0,7.0,83,0.00,,,-99.99,,2013-01-02 00:52:00,
2013-01-01 18:02:00,0.0,-3.0,-100.00,NNW,336,6.0,9.0,85,0.00,,,-99.99,,2013-01-02 01:02:00,
2013-01-01 18:12:00,0.0,-3.0,-100.00,NNW,336,9.0,10.0,88,0.00,,,-99.99,,2013-01-02 01:12:00,
2013-01-01 18:22:00,0.0,-6.0,-100.00,NW,322,6.0,8.0,75,0.00,,,-99.99,,2013-01-02 01:22:00,
2013-01-01 18:32:00,-5.0,-8.0,-100.00,WSW,241,4.0,9.0,85,0.00,,,-99.99,,2013-01-02 01:32:00,
2013-01-01 18:42:00,-6.0,-9.0,-100.00,SSW,199,8.0,11.0,85,0.00,,,-99.99,,2013-01-02 01:42:00,
2013-01-01 18:52:00,-5.0,-8.0,-100.00,South,184,9.0,11.0,85,0.00,,,-99.99,,2013-01-02 01:52:00,
2013-01-01 19:02:00,-3.0,-7.0,-100.00,South,188,9.0,12.0,85,0.00,,,-99.99,,2013-01-02 02:02:00,
2013-01-01 19:12:00,-4.0,-7.0,-100.00,South,188,9.0,12.0,87,0.00,,,-99.99,,2013-01-02 02:12:00,
2013-01-01 19:22:00,-3.0,-5.0,-100.00,SSW,193,7.0,11.0,90,0.00,,,-99.99,,2013-01-02 02:22:00,
2013-01-01 19:32:00,-2.0,-5.0,-100.00,West,267,1.0,3.0,84,0.00,,,-99.99,,2013-01-02 02:32:00,
2013-01-01 19:42:00,-2.0,-5.0,-100.00,NNE,30,3.0,6.0,85,0.00,,,-99.99,,2013-01-02 02:42:00,
2013-01-01 19:52:00,-2.0,-6.0,-100.00,North,357,4.0,6.0,85,0.00,,,-99.99,,2013-01-02 02:52:00,
2013-01-01 20:02:00,-1.0,-5.0,-100.00,NNE,28,5.0,7.0,87,0.00,,,-99.99,,2013-01-02 03:02:00,
2013-01-01 20:12:00,-1.0,-4.0,-100.00,NE,47,6.0,7.0,86,0.00,,,-99.99,,2013-01-02 03:12:00,
2013-01-01 20:22:00,-1.0,-4.0,-100.00,ENE,78,6.0,9.0,86,0.00,,,-99.99,,2013-01-02 03:22:00,
2013-01-01 20:32:00,0.0,-2.0,-100.00,NE,55,5.0,7.0,87,0.00,,,-99.99,,2013-01-02 03:32:00,
2013-01-01 20:42:00,0.0,-3.0,-100.00,ENE,72,6.0,7.0,85,0.00,,,-99.99,,2013-01-02 03:42:00,
2013-01-01 20:52:00,1.0,-2.0,-100.00,ESE,102,2.0,4.0,87,0.00,,,-99.99,,2013-01-02 03:52:00,
2013-01-01 21:02:00,2.0,-1.0,-100.00,West,278,1.0,2.0,86,0.00,,,-99.99,,2013-01-02 04:02:00,
2013-01-01 21:12:00,2.0,-1.0,-100.00,WSW,250,1.0,3.0,87,0.00,,,-99.99,,2013-01-02 04:12:00,
2013-01-01 21:22:00,3.0,0.0,-100.00,SSW,192,3.0,4.0,87,0.00,,,-99.99,,2013-01-02 04:22:00,
2013-01-01 21:32:00,4.0,2.0,-100.00,South,178,4.0,6.0,88,0.00,,,-99.99,,2013-01-02 04:32:00,
2013-01-01 21:42:00,4.0,0.0,-100.00,SW,220,3.0,6.0,86,0.00,,,-99.99,,2013-01-02 04:42:00,
2013-01-01 21:52:00,4.0,1.0,-100.00,SW,219,2.0,4.0,86,0.00,,,-99.99,,2013-01-02 04:52:00,
2013-01-01 22:03:00,6.0,2.0,-100.00,SE,134,2.0,4.0,86,0.00,,,-99.99,,2013-01-02 05:03:00,
2013-01-01 22:12:00,6.0,3.0,-100.00,SE,124,2.0,4.0,84,0.00,,,-99.99,,2013-01-02 05:12:00,
2013-01-01 22:22:00,4.0,0.0,-100.00,South,181,4.0,6.0,84,0.00,,,-99.99,,2013-01-02 05:22:00,
2013-01-01 22:33:00,6.0,2.0,-100.00,SE,141,5.0,8.0,84,0.00,,,-99.99,,2013-01-02 05:33:00,
2013-01-01 22:42:00,5.0,1.0,-100.00,ESE,112,6.0,10.0,84,0.00,,,-99.99,,2013-01-02 05:42:00,
2013-01-01 22:52:00,7.0,3.0,-100.00,ESE,117,1.0,4.0,86,0.00,,,-99.99,,2013-01-02 05:52:00,
2013-01-01 23:02:00,8.0,3.0,-100.00,SSE,151,1.0,4.0,80,0.00,,,-99.99,,2013-01-02 06:02:00,
2013-01-01 23:12:00,8.0,4.0,-100.00,SE,127,1.0,2.0,84,0.00,,,-99.99,,2013-01-02 06:12:00,
2013-01-01 23:22:00,10.0,5.0,-100.00,South,181,1.0,4.0,80,0.00,,,-99.99,,2013-01-02 06:22:00,
2013-01-01 23:32:00,10.0,5.0,-100.00,SSE,155,1.0,4.0,80,0.00,,,-99.99,,2013-01-02 06:32:00,
2013-01-01 23:42:00,15.0,8.0,-100.00,WNW,292,11.0,19.0,75,0.00,,,-99.99,,2013-01-02 06:42:00,
2013-01-01 23:52:00,15.0,8.0,-100.00,WNW,284,19.0,24.0,71,0.00,,,-99.99,,2013-01-02 06:52:00,